Home   Weather   Yakutsk   Past weeks

Flag for Russia Past Weather in Yakutsk, Russia — Yesterday and Last 2 Weeks

Now
32 °F

Clear.


Feels Like: 32 °F
Forecast: 16 / 36 °F
Wind: 1 mph from North

Location: Jakutsk

Current Time: Sep 30, 2016 at 7:14:32 PM

Latest Report: Sep 30, 2016 at 6:30 PM


Visibility: 10 mi

Pressure: 29.80 "Hg

Humidity: 51%

Dew Point: 16 °F

Location of YakutskLocation

Past Weather in Yakutsk — Graph

°F

Yakutsk Temperature Yesterday

Maximum temperature yesterday: 36 °F (at 2:30 PM)
Minimum temperature yesterday: 18 °F (at 6:00 AM)
Average temperature yesterday: 25 °F

High & Low Weather Summary for the Past Weeks

 TemperatureHumidityPressure
High66 °F (Sep 17, 4:30 PM)100% (Sep 20, 4:30 AM)30.30 "Hg (Sep 20, 4:30 AM)
Low14 °F (Sep 30, 4:30 AM)24% (Sep 17, 4:30 PM)29.36 "Hg (Sep 27, 7:00 AM)
Average38 °F69%29.83 "Hg
* Reported Sep 15 6:00 PM — Sep 30 6:00 PM, Yakutsk, Weather by CustomWeather, © 2016

Note: Actual official high and low records may vary slightly from our data, if they occured in-between our weather recording intervals... More about our weather records

Advertising

Yakutsk Weather History for the Previous 24 Hours

Scroll right to see more
 ConditionsComfort  
Time TempWeatherWind HumidityBarometerVisibility
6:00 PM
Fri, Sep 30
32 °FClear.1 mph51%29.80 "Hg10 mi
5:30 PM36 °FClear.1 mph44%29.77 "Hg10 mi
5:00 PM37 °FClear.3 mph38%29.77 "Hg10 mi
4:30 PM37 °FSunny.1 mph41%29.77 "Hg10 mi
4:00 PM37 °FSunny.3 mph38%29.77 "Hg10 mi
3:30 PM37 °FSunny.6 mph38%29.77 "Hg10 mi
3:00 PM37 °FSunny.6 mph38%29.77 "Hg10 mi
2:30 PM37 °FPassing clouds.3 mph35%29.77 "HgN/A
2:00 PM37 °FPassing clouds.3 mph35%29.77 "HgN/A
1:30 PM37 °FSunny.1 mph35%29.77 "Hg10 mi
1:00 PM37 °FPassing clouds.3 mph38%29.77 "HgN/A
12:30 PM36 °FPassing clouds.3 mph44%29.77 "HgN/A
12:00 PM36 °FSunny.1 mph48%29.80 "Hg10 mi
11:30 AM34 °FSunny.1 mph51%29.80 "Hg10 mi
11:00 AM32 °FSunny.1 mph60%29.80 "Hg10 mi
10:30 AM30 °FSunny.1 mph64%29.80 "Hg10 mi
10:00 AM28 °FSunny.3 mph69%29.80 "Hg10 mi
9:30 AM25 °FSunny.6 mph80%29.83 "Hg10 mi
9:00 AM23 °FSunny.6 mph80%29.83 "Hg10 mi
8:30 AM19 °FSunny.6 mph86%29.83 "Hg10 mi
8:00 AM16 °FSunny.6 mph93%29.83 "Hg10 mi
7:30 AM16 °FSunny.8 mph86%29.80 "Hg10 mi
7:00 AM14 °FSunny.6 mph92%29.83 "Hg10 mi
6:30 AM14 °FSunny.6 mph92%29.83 "Hg10 mi
6:00 AM14 °FSunny.3 mph92%29.83 "Hg10 mi
5:30 AM14 °FSunny.6 mph92%29.83 "Hg10 mi
5:00 AM14 °FClear.6 mph92%29.83 "Hg10 mi
4:30 AM14 °FClear.8 mph92%29.83 "Hg10 mi
4:00 AM16 °FClear.8 mph93%29.83 "Hg10 mi
3:30 AM16 °FClear.8 mph93%29.83 "Hg10 mi
3:00 AM16 °FClear.6 mph86%29.83 "Hg10 mi
2:30 AM16 °FClear.6 mph93%29.83 "Hg10 mi
2:00 AM16 °FClear.6 mph93%29.83 "Hg10 mi
1:30 AM18 °FClear.6 mph86%29.83 "Hg10 mi
1:00 AM18 °FClear.3 mph86%29.83 "Hg10 mi
12:30 AM19 °FClear.3 mph86%29.83 "Hg10 mi
12:00 AM19 °FClear.6 mph86%29.86 "Hg10 mi
11:30 PM
Thu, Sep 29
19 °FClear.6 mph86%29.86 "Hg10 mi
11:00 PM19 °FClear.6 mph86%29.86 "Hg10 mi
10:30 PM19 °FClear.6 mph79%29.86 "Hg10 mi
10:00 PM19 °FClear.6 mph79%29.86 "Hg10 mi
9:30 PM19 °FClear.3 mph79%29.86 "Hg10 mi
9:00 PM21 °FClear.6 mph80%29.86 "Hg10 mi
8:30 PM23 °FClear.6 mph74%29.86 "Hg10 mi
8:00 PM23 °FClear.3 mph74%29.86 "Hg10 mi
7:30 PM25 °FClear.3 mph69%29.86 "Hg10 mi
7:00 PM27 °FClear.1 mph64%29.86 "Hg10 mi
Weather by CustomWeather, © 2016

See weather overviewHow to use our weather pages